Regional Weather Roundup
Issued by NWS

Home | Current Version | Previous Version | Graphics & Text | Print | Product List | Glossary On
Versions: 1 2 3 4 5 6 7 8 9 10 11 12 13 14 15 16 17 18 19 20 21 22 23 24 25 26 27 28 29 30 31 32 33 34 35 36 37 38 39 40 41 42 43 44 45 46 47 48 49 50
000
ASUS43 KLOT 310710
RWRIL

ILLINOIS REGIONAL WEATHER ROUNDUP
NATIONAL WEATHER SERVICE CHICAGO/ROMEOVILLE IL
200 AM CDT FRI OCT 31 2014

NOTE: "FAIR" INDICATES FEW OR NO CLOUDS BELOW 12,000 FEET WITH NO
SIGNIFICANT WEATHER AND/OR OBSTRUCTIONS TO VISIBILITY.

* THESE STATIONS ARE NOT UNDER NWS QUALITY CONTROL. THEY ALSO MAY NOT
  REPORT WEATHER SUCH AS PRECIPITATION OR FOG.

ILZ001-002-007-009-015-016-024-310800-
NORTHWEST ILLINOIS

CITY           SKY/WX    TMP DP  RH WIND       PRES   REMARKS
MOLINE         CLOUDY    48  37  65 N20G26    30.12R
STERLING*      CLOUDY    46  37  71 N15       30.09R
SAVANNA*       CLOUDY    45  32  60 N10       30.12R
$$

ILZ003-004-008-010-011-017-018-310800-
NORTH CENTRAL ILLINOIS

CITY           SKY/WX    TMP DP  RH WIND       PRES   REMARKS
ROCKFORD       LGT RAIN  45  32  60 N14G24    30.08R
FREEPORT*      CLOUDY    43  32  66 NW13G21   30.11R
ROCHELLE*      LGT RAIN  45  38  78 NW12      30.06S
DE KALB*       CLOUDY    44  37  77 NW8       30.05S
PERU*          CLOUDY    46  39  78 NW10      30.07S
$$

ILZ005-006-012>014-019>023-310800-
NORTHEAST ILLINOIS

CITY           SKY/WX    TMP DP  RH WIND       PRES   REMARKS
CHICAGO-OHARE  CLOUDY    47  36  65 NW10      30.01F
CHICAGO-MIDWAY LGT RAIN  48  38  68 W10       30.02F
AURORA         CLOUDY    45  38  76 NW8       30.04F
LANSING*       CLOUDY    44  38  79 W5        30.02F
JOLIET*        CLOUDY    44  38  77 W3        30.03F
WAUKEGAN       CLOUDY    44  33  65 NW8G16    30.01S
DUPAGE AIRPORT CLOUDY    46  38  73 NW13      30.03S
KANKAKEE*      CLOUDY    43  40  87 W6        30.04F
WHEELING       CLOUDY    48  36  63 NW17G23   30.04S
MORRIS*        CLOUDY    45  40  84 W6        30.04S
ROMEOVILLE*    CLOUDY    46  37  72 NW6       30.03S
NORTHERLY ISL    N/A     48  36  63 W9          N/A
$$

LMZ740>746-310800-
SOUTHERN LAKE MICHIGAN

STATION/POSITION SKY/WX   TEMP    WIND        PRES    VSBY  WAVE
                          AIR SEA DIR/SP/G                  HT/PER
                          (F)     (DEG/KT/KT) (MB)    (MI)  (FT/S)
SOUTHERN BUOY              46 53  300/ 21/ 25 1015.5F         3/ 4
WAUKEGAN HARBOR            46     320/ 10/ 16   N/A
HARRISON CRIB              49     280/ 12/ 15   N/A
BURNHAM HARBOR             48     290/  5/  8   N/A
CALUMET HARBOR             47     260/  3/  5 1015.2F
MICHIGAN CITY              50     270/ 18/ 22   N/A
$$

ILZ025>027-034>036-040-047-049-050-058-095>099-310800-
WEST-CENTRAL ILLINOIS

CITY           SKY/WX    TMP DP  RH WIND       PRES   REMARKS
QUINCY         CLOUDY    46  41  82 N8        30.12R
GALESBURG*     CLOUDY    45  41  85 NW9       30.11S
MACOMB*        CLOUDY    45  42  90 NW5       30.13S
JACKSONVILLE*  CLOUDY    46  43  89 NW5       30.10R
PITTSFIELD*    CLOUDY    46  43  87 NW3       30.11S
$$

ILZ028>032-037-038-041>044-048-051>054-059>061-310800-
CENTRAL ILLINOIS

CITY           SKY/WX    TMP DP  RH WIND       PRES   REMARKS
PONTIAC        CLOUDY    45  42  88 W7        30.06S
BLOOMINGTON    CLOUDY    44  42  93 NW7       30.08S
DECATUR        MOCLDY    45  42  89 N3        30.07R
PEORIA         LGT RAIN  46  40  79 NW3       30.09S
LACON*         CLOUDY    46  39  76 NW7       30.07F
LINCOLN*       CLOUDY    45  42  91 CALM      30.08R
SPRINGFIELD    CLOUDY    46  42  86 N6        30.09R
TAYLORVILLE    MOCLDY    43  43 100 N7        30.07S FOG
$$

ILZ033-039-045-046-055>057-062-063-310800-
EAST-CENTRAL ILLINOIS

CITY           SKY/WX    TMP DP  RH WIND       PRES   REMARKS
CHAMPAIGN      CLOUDY    44  42  93 N3        30.05S
DANVILLE*      CLOUDY    43  40  88 NW3       30.02S
RANTOUL*       CLOUDY    45  41  86 NW6       30.05F
MATTOON        MOCLDY    45  43  93 NW3       30.04F
PARIS*         MOCLDY    44  42  94 CALM      30.05S
$$

ILZ079-100>102-310800-
SOUTHWEST ILLINOIS

CITY           SKY/WX    TMP DP  RH WIND       PRES   REMARKS
ALTON          MOCLDY    48  45  90 CALM      30.06R
BELLEVILLE     MOCLDY    47  47  99 N6        30.03F
CAHOKIA*       PTCLDY    49  46  90 N8        30.06R
SPARTA*        CLOUDY    49  48  97 CALM      30.04S
$$

ILZ064>066-069>071-074>076-080>082-084>086-088>090-092>094-310800-
SOUTH-CENTRAL ILLINOIS

CITY           SKY/WX    TMP DP  RH WIND       PRES   REMARKS
CARBONDALE     CLOUDY    50  48  93 CALM      30.03S
CAIRO*         CLOUDY    54  51  89 CALM      30.01S
EFFINGHAM*     CLOUDY    47  44  90 CALM      30.04F
MARION         PTCLDY    50  48  93 CALM      30.02F FOG
MT. VERNON     CLOUDY    48  43  81 NE5       30.04S
CENTRALIA*     CLOUDY    48  44  87 E5        30.04S
SALEM*         CLOUDY    49  48  93 E5        30.04F
METROPOLIS*    LGT RAIN  51  51 100 CALM      30.00F
$$

ILZ067-068-072-073-078-083-087-091-310800-
SOUTHEAST ILLINOIS

CITY           SKY/WX    TMP DP  RH WIND       PRES   REMARKS
LAWRENCEVILLE  LGT RAIN  47  46  97 NE3       30.04F FOG
FLORA*         PTCLDY    47  46  93 NE3       30.04F
FAIRFIELD*     CLOUDY    48  46  91 CALM      30.03S
HARRISBURG*    CLOUDY    50  49  97 CALM      30.03F
ROBINSON*      CLOUDY    48  47  94 CALM      30.05F
CARMI*         CLOUDY    50  48  92 NE3       30.03R
$$

ABBREVIATIONS USED IN REMARKS
   TC - TEMPERATURE IN CELSIUS
  WCI - WIND CHILL INDEX
   HX - HEAT INDEX
  VSB - VISIBILITY
$$




USA.gov is the U.S. government's official web portal to all federal, state and local government web resources and services.